Flag for Spain Weather past 2 weeks in Santander, Spain

Now
73 °F

Passing clouds.


Feels Like: 77 °F
Forecast: 55 / 72 °F
Wind: 5 mph from West

Location: Santander / Parayas

Current Time: Oct 24, 2014 at 6:40:31 PM

Latest Report: Oct 24, 2014 at 6:00 PM


Visibility: N/A

Pressure: 30.09 "Hg

Humidity: 47%

Dew point: 52 °F

Location of SantanderLocation

Historic Weather in Santander — Graph

°F

Santander temperature yesterday

Maximum temperature yesterday: 72 °F (at 4:30 PM)
Minimum temperature yesterday: 48 °F (at 6:30 AM)
Average temperature yesterday: 60 °F

Past Weeks' High & Low Weather Summary

 TemperatureHumidityPressure
High86 °F (Oct 18, 3:30 PM)100% (Oct 10, 5:30 AM)30.48 "Hg (Oct 10, 5:30 AM)
Low48 °F (Oct 23, 6:30 AM)25% (Oct 18, 4:00 PM)29.50 "Hg (Oct 12, 7:30 AM)
Average66 °F72%29.95 "Hg
* Reported Oct 9 5:00 PM — Oct 24 5:30 PM, Santander, Weather by CustomWeather, © 2014

Note: Actual official high and low records may vary slightly from our data, if they occured in-between our weather recording intervals... More about our weather records

Advertising

Santander weather history for previous 24 hours

 ConditionsComfort  
Time TempWeatherWind HumidityBarometerVisibility
5:30 PM
Oct 24
73 °FSunny.9 mph47%30.07 "Hg10 mi
5:00 PM73 °FPassing clouds.9 mph47%30.07 "HgN/A
4:30 PM77 °FSunny.7 mph44%30.07 "Hg10 mi
4:00 PM79 °FPassing clouds.7 mph45%30.07 "HgN/A
3:30 PM79 °FPassing clouds.5 mph39%30.07 "HgN/A
3:00 PM79 °FPassing clouds.6 mph42%30.07 "HgN/A
2:30 PM77 °FPassing clouds.8 mph47%30.09 "HgN/A
2:00 PM75 °FPassing clouds.3 mph47%30.09 "HgN/A
1:30 PM73 °FSunny.8 mph50%30.09 "Hg10 mi
1:00 PM73 °FPassing clouds.3 mph53%30.09 "HgN/A
12:30 PM70 °FSunny.No wind60%30.09 "Hg10 mi
12:00 PM68 °FSunny.No wind69%30.09 "Hg10 mi
11:30 AM66 °FSunny.No wind64%30.09 "Hg10 mi
11:00 AM64 °FSunny.1 mph73%30.09 "Hg10 mi
10:30 AM63 °FSunny.1 mph77%30.07 "Hg10 mi
10:00 AM59 °FSunny.No wind82%30.07 "Hg10 mi
9:30 AM57 °FClear.1 mph82%30.07 "Hg10 mi
9:00 AM57 °FClear.No wind82%30.07 "Hg10 mi
8:30 AM57 °FClear.No wind82%30.07 "Hg10 mi
8:00 AM59 °FPassing clouds.1 mph72%30.07 "HgN/A
7:30 AM57 °FPassing clouds.No wind77%30.07 "HgN/A
7:00 AM57 °FPassing clouds.No wind77%30.07 "HgN/A
6:30 AM57 °FPassing clouds.1 mph77%30.09 "HgN/A
6:00 AM55 °FPassing clouds.1 mph82%30.09 "HgN/A
5:30 AM55 °FPassing clouds.No wind82%30.09 "HgN/A
11:00 PM
Oct 23
59 °FClear.1 mph82%30.21 "Hg10 mi
10:30 PM59 °FClear.1 mph82%30.21 "Hg10 mi
10:00 PM61 °FClear.1 mph77%30.21 "Hg10 mi
9:30 PM61 °FClear.2 mph77%30.21 "Hg10 mi
9:00 PM63 °FClear.1 mph68%30.21 "Hg10 mi
8:30 PM64 °FClear.2 mph68%30.21 "Hg10 mi
8:00 PM64 °FSunny.No wind68%30.18 "Hg10 mi
7:30 PM66 °FSunny.No wind68%30.18 "Hg10 mi
7:00 PM68 °FSunny.No wind56%30.18 "Hg10 mi
6:30 PM70 °FSunny.No wind50%30.18 "Hg10 mi
6:00 PM68 °FSunny.1 mph60%30.18 "Hg10 mi
Weather by CustomWeather, © 2014

See weather overviewHow to use our weather pages